GEFSNGP_850_meantemp_018.txt.gz
Temperature
13 13 12 11 11 12 12 12 12 12 11 11 12 13 13 14 14 15 15 16 17 18 19 19 20 20 20 20 20 19 18 18 18 17 17 17 17 17 17 17 16 16 16 15
12 12 12 11 10 11 11 12 12 12 11 11 12 13 13 13 14 14 14 15 16 17 18 18 19 19 20 20 19 18 18 17 17 16 17 17 17 17 16 16 16 16 16 15
11 12 12 10 9 9 10 10 10 10 10 11 11 12 12 13 13 14 14 15 16 16 16 16 17 17 18 18 18 17 17 16 16 16 16 16 16 16 16 16 15 15 15 15
10 11 10 9 9 9 10 10 10 10 10 11 11 11 13 13 13 14 15 15 15 15 15 15 15 15 16 16 16 15 15 15 15 15 15 15 15 15 15 15 15 15 15 15
9 10 10 10 10 9 9 10 9 9 10 10 10 12 13 14 13 14 15 15 15 15 15 15 15 15 15 15 15 14 14 14 14 14 15 15 15 15 14 14 14 14 14 14
9 9 9 9 10 10 9 10 10 9 10 10 10 10 11 13 14 14 15 15 15 15 15 15 14 14 14 14 13 13 13 13 13 13 13 13 14 13 13 13 13 13 13 14
8 9 9 10 11 10 10 9 10 9 10 10 9 10 11 13 14 15 15 15 15 15 14 14 14 14 13 13 13 13 12 12 12 12 12 12 12 12 12 12 12 12 12 13
8 8 9 11 10 9 9 10 10 10 11 11 11 12 13 14 15 15 15 15 15 15 14 14 14 14 13 13 13 13 12 12 12 12 11 11 12 12 12 12 12 12 12 12
9 9 11 11 11 11 11 11 11 11 11 11 12 12 13 14 15 15 16 15 15 15 15 14 14 14 14 13 13 13 13 12 12 11 11 11 11 11 11 11 12 12 12 12
9 10 11 11 12 12 11 11 12 12 12 12 12 13 14 14 15 16 16 16 15 15 15 15 14 14 14 14 13 13 13 12 12 11 11 11 11 11 11 11 11 11 11 11
9 11 11 12 12 12 12 12 12 12 12 12 12 13 14 14 15 15 16 16 16 16 15 15 15 14 14 14 13 13 13 12 12 12 11 11 11 11 11 11 11 11 11 11
9 11 11 12 12 12 12 12 12 12 12 12 12 13 14 14 15 15 16 16 16 16 16 15 15 15 14 14 13 13 13 12 12 12 11 11 11 11 11 11 10 10 10 10
13 12 12 12 12 12 12 12 12 12 12 12 12 13 13 14 15 15 15 16 16 16 16 16 15 15 15 14 13 13 13 12 12 12 11 11 11 11 11 10 10 10 10 10
13 13 12 12 12 12 12 12 12 12 12 12 12 13 13 14 15 15 16 16 16 16 16 16 16 15 15 14 14 13 13 12 12 12 11 11 11 11 11 10 10 9 9 10
13 13 12 12 12 12 12 12 12 12 12 12 12 13 13 14 15 16 16 16 16 16 16 16 16 16 15 15 14 13 13 12 12 12 11 11 11 11 10 10 10 9 9 10
13 13 12 12 12 12 12 12 12 12 12 12 12 13 13 14 15 16 16 16 17 17 17 16 16 16 16 15 14 14 13 12 12 12 11 11 11 11 11 10 10 10 10 10
13 12 12 12 12 12 11 11 11 12 12 12 12 12 13 15 16 17 17 17 17 17 17 17 16 16 16 15 15 14 13 12 12 11 11 11 11 11 11 10 10 10 10 10
13 13 12 12 12 11 11 11 11 12 12 12 12 12 13 14 15 16 17 17 17 17 17 17 17 16 16 16 15 14 13 12 12 11 11 11 11 11 11 10 10 10 10 10
13 12 12 12 11 11 11 11 11 11 12 12 12 12 13 13 14 15 16 17 17 18 17 17 17 16 16 15 15 14 13 12 12 11 11 11 11 11 11 10 10 10 10 10
13 12 12 12 11 11 11 11 11 11 12 12 12 12 13 13 14 15 16 16 17 17 17 17 17 16 16 15 15 14 13 12 12 11 11 11 11 11 10 10 10 10 10 9
13 12 12 11 11 11 11 11 11 11 11 11 12 12 12 13 13 14 15 16 16 17 17 17 17 16 16 15 15 14 13 12 12 11 11 11 11 11 11 10 10 10 9 9
13 12 12 11 11 11 11 11 11 11 11 11 12 12 12 13 13 13 14 15 15 16 17 17 17 16 16 15 15 14 13 12 12 11 11 11 11 11 11 10 10 10 9 9
13 12 12 11 11 12 11 11 11 11 11 11 11 11 12 12 12 13 14 14 15 16 16 17 17 17 16 15 15 14 13 12 12 11 11 11 11 11 11 10 10 10 9 9
13 12 12 12 11 11 11 11 11 11 11 11 11 11 11 12 12 12 13 13 14 15 16 17 17 17 16 16 15 14 14 13 12 11 11 11 11 11 11 10 10 10 9 9
12 12 12 12 12 12 11 11 11 11 11 11 11 11 11 11 11 12 12 13 14 15 15 16 16 17 16 16 15 14 14 13 12 12 11 11 11 11 10 10 10 10 9 9
12 12 12 12 12 12 11 11 11 12 11 12 12 11 11 11 11 11 12 13 13 14 15 15 16 16 16 16 15 14 14 13 12 12 11 11 11 10 10 10 10 10 9 9
12 12 12 12 12 12 11 11 11 11 11 11 12 12 11 11 11 11 12 12 13 13 14 14 15 15 15 15 15 14 14 13 12 12 11 11 10 10 10 10 10 10 9 9

GEFSNGP_850_meantemp_024.txt.gz
Temperature
10 11 11 10 10 11 11 11 11 10 10 10 10 10 10 10 11 11 12 12 13 13 14 15 16 16 17 17 17 17 17 17 16 17 17 17 17 17 17 17 16 16 16 16
11 11 11 10 10 10 10 10 10 11 10 10 10 10 10 10 11 11 12 12 13 13 14 14 14 15 15 16 16 16 16 16 16 16 16 16 16 16 16 16 16 16 16 16
9 10 11 9 9 9 10 9 9 9 9 10 10 10 10 10 11 11 12 13 13 13 13 13 13 13 14 14 14 14 15 15 15 15 15 15 16 16 16 16 16 16 15 15
8 10 9 9 10 10 10 10 10 10 10 10 9 10 12 11 11 12 13 13 13 13 13 13 13 13 13 13 13 13 14 14 14 14 14 15 15 15 15 15 15 15 15 14
7 8 9 10 10 9 9 10 10 9 9 10 10 12 13 12 12 13 13 13 13 13 13 13 12 12 13 13 13 13 13 13 13 13 13 14 14 14 13 13 13 13 13 13
7 9 9 9 10 10 9 10 10 9 9 9 9 10 11 12 13 14 14 14 13 13 13 13 13 13 13 12 12 12 12 12 12 12 12 12 12 12 12 12 12 12 12 12
7 8 8 9 10 10 9 10 10 10 10 10 9 9 11 13 13 14 14 14 14 14 14 13 13 13 13 13 12 12 11 11 11 11 11 11 11 11 11 11 11 11 11 11
7 8 8 11 10 9 9 11 11 11 11 11 11 12 13 14 14 15 15 14 14 14 14 14 14 13 13 13 12 12 12 11 11 11 11 11 11 11 11 11 11 11 11 11
7 8 10 11 11 11 11 11 11 11 11 11 12 12 13 14 15 15 15 15 15 15 14 14 14 14 13 13 13 12 12 11 11 11 11 11 11 11 11 11 11 11 11 11
8 8 10 11 11 11 11 11 11 11 11 12 12 13 13 14 15 15 15 15 15 15 15 15 14 14 14 13 13 12 12 12 11 11 11 11 11 11 11 11 11 11 11 11
8 9 10 11 11 11 11 11 11 11 12 12 12 13 13 14 15 15 15 15 15 15 15 15 15 15 14 14 13 13 12 12 11 11 11 11 11 11 11 10 10 10 10 10
8 10 10 12 12 12 12 12 11 12 12 12 12 12 13 14 14 15 15 15 16 16 16 16 15 15 15 14 13 13 12 12 12 11 11 11 11 11 10 10 10 10 10 10
13 13 12 12 12 12 12 12 11 11 11 12 12 12 13 14 14 15 15 16 16 16 16 16 16 15 15 14 14 13 12 12 12 11 11 11 11 10 10 10 10 9 10 10
13 13 12 12 12 12 12 12 11 11 11 11 12 12 13 13 14 15 16 16 16 16 16 16 16 16 15 15 14 13 13 12 12 11 11 11 11 11 10 10 10 10 10 10
13 13 13 12 12 12 12 12 12 12 12 12 12 12 12 13 14 15 16 16 16 16 16 16 16 16 16 15 14 14 13 12 12 11 11 11 11 11 10 10 10 10 10 10
13 12 12 12 12 12 12 12 12 12 12 12 12 12 12 13 14 14 15 16 16 17 17 16 16 16 16 15 15 14 13 12 12 11 11 11 11 11 10 10 10 10 10 10
13 12 12 12 12 12 12 12 12 12 12 12 12 12 12 13 14 15 15 16 16 16 16 16 16 16 16 15 15 14 13 12 12 11 11 11 11 11 10 10 10 10 10 9
14 14 14 13 12 12 12 11 12 12 12 12 12 12 12 13 13 14 15 15 16 16 16 16 16 16 16 15 15 14 13 12 11 11 11 11 11 11 10 10 10 10 9 9
14 14 13 13 12 12 12 11 11 11 12 12 12 12 12 12 13 13 14 15 15 16 16 16 16 16 16 15 15 14 13 12 12 11 11 11 11 10 10 10 10 10 9 9
13 13 13 13 12 12 12 11 11 11 11 12 12 12 12 12 12 13 13 14 14 15 15 16 16 16 16 15 15 14 13 12 12 11 11 11 11 11 10 10 10 9 9 9
13 13 13 12 12 12 12 11 11 11 11 11 11 12 12 12 12 12 13 14 14 14 15 15 16 16 15 15 15 14 13 12 12 11 11 11 11 11 10 10 10 9 9 8
14 13 13 13 12 12 12 11 11 11 11 11 11 11 12 12 12 12 12 13 14 14 15 15 16 16 15 15 15 14 13 13 12 12 11 11 11 11 10 10 10 9 9 8
14 13 13 13 12 12 12 12 12 11 11 11 11 11 11 12 12 12 12 13 13 14 14 15 15 16 16 15 15 14 13 13 12 12 11 11 11 11 10 10 10 9 9 9
14 13 13 13 12 12 12 12 12 12 12 11 11 11 11 11 11 11 12 12 12 13 14 14 15 15 16 15 15 14 14 13 12 12 11 11 11 11 10 10 10 10 9 9
14 13 13 12 12 12 12 12 12 12 12 12 11 11 11 11 11 11 11 12 12 13 13 14 14 15 15 15 15 14 14 13 12 12 11 11 11 11 10 10 10 10 10 9
14 13 13 13 13 12 12 12 12 12 12 12 12 11 11 11 11 11 11 11 11 12 13 13 14 14 14 15 15 14 14 13 12 12 11 11 11 10 10 10 10 10 10 10
14 13 13 13 12 12 12 12 12 12 12 12 12 11 11 11 11 11 11 11 11 12 12 13 13 13 14 14 14 14 14 13 13 12 12 11 11 10 10 10 10 10 10 10

GEFSNGP_850_meantemp_030.txt.gz
Temperature
14 14 14 13 13 13 12 11 11 10 11 10 10 11 11 11 11 11 11 11 11 11 11 12 12 12 12 13 13 14 14 14 15 15 15 15 15 15 15 15 15 15 15 15
15 14 15 14 13 13 12 12 12 12 11 11 11 12 12 12 12 12 12 12 12 12 11 12 11 12 12 12 13 13 13 14 14 14 14 14 14 15 15 15 15 15 15 15
16 15 15 15 13 12 12 12 12 12 11 12 12 12 12 12 12 13 12 12 12 12 12 12 12 11 12 12 12 12 12 13 13 13 13 14 14 14 14 14 14 14 14 14
16 16 15 14 14 13 13 13 13 12 12 12 12 13 13 12 13 13 13 13 13 13 12 12 12 12 12 11 11 11 12 12 12 12 12 13 13 13 13 13 13 13 13 13
17 16 15 14 14 13 14 14 14 14 14 13 14 15 15 13 13 13 13 13 13 13 13 13 12 12 12 12 11 11 11 11 11 11 12 12 12 12 12 12 12 12 12 13
16 17 16 15 14 13 13 15 14 13 14 14 15 17 16 13 13 13 13 13 13 13 13 13 13 13 13 12 12 11 11 11 11 11 12 12 12 12 12 12 12 12 12 12
17 17 16 15 13 13 15 16 14 13 13 13 14 14 13 13 13 13 14 14 14 14 14 13 13 13 13 12 12 11 11 11 11 11 11 11 11 11 11 11 11 11 11 11
16 17 16 14 13 14 16 14 13 13 13 12 12 12 13 13 13 13 14 14 14 14 14 14 13 13 13 12 12 11 11 11 11 11 11 11 11 11 11 11 11 11 11 11
17 16 14 13 14 13 13 13 13 13 12 12 12 13 13 13 13 13 14 14 15 14 14 14 14 13 13 12 12 12 11 11 11 11 11 11 11 11 11 11 11 11 11 10
15 15 14 13 12 12 12 12 12 12 12 12 12 12 13 13 13 14 14 14 15 15 15 14 14 14 13 13 12 12 12 11 11 11 11 11 11 11 10 10 10 10 10 10
16 15 13 13 13 12 12 12 12 12 12 12 12 12 12 13 13 14 14 14 15 15 15 15 15 14 14 13 13 12 12 12 11 11 11 10 10 10 10 10 10 10 10 10
17 16 16 15 13 12 12 12 12 12 12 12 12 12 12 12 13 14 14 15 15 15 15 15 15 15 14 14 13 13 12 12 11 11 11 10 10 10 10 10 10 10 10 10
15 14 14 14 13 13 12 12 12 12 12 12 12 12 12 13 13 14 14 15 15 15 16 16 15 15 15 14 14 13 12 12 11 11 11 10 10 10 10 10 10 10 10 10
13 13 13 13 13 13 12 12 12 12 12 12 12 12 13 13 13 14 15 15 16 16 16 16 16 15 15 15 14 13 12 12 11 11 11 10 10 10 10 10 9 9 9 10
13 13 14 13 13 12 12 12 12 12 12 12 12 12 13 13 13 14 15 15 15 15 16 16 16 16 15 15 14 13 12 12 11 11 11 10 10 10 10 10 10 9 9 9
13 12 13 13 13 12 12 12 12 12 12 12 12 12 13 13 13 13 14 15 15 16 16 16 16 16 15 15 14 13 12 12 11 11 11 11 10 10 10 10 10 10 9 9
13 13 13 13 13 13 12 12 12 12 12 12 12 13 13 13 13 13 14 15 15 15 16 16 16 16 15 15 14 13 12 12 12 11 11 11 10 10 10 10 10 9 9 9
14 14 14 14 13 13 12 12 12 12 12 12 12 12 12 12 13 13 14 14 14 14 15 15 16 16 15 15 14 13 13 12 11 11 11 11 10 10 10 10 9 9 9 9
14 14 13 13 13 13 13 12 12 12 12 12 12 12 12 12 13 13 13 13 13 14 15 15 15 15 15 15 15 14 13 12 11 11 11 11 11 10 10 10 9 9 9 9
14 14 13 13 13 13 12 12 12 12 12 12 12 12 12 12 12 13 13 12 13 14 14 15 15 15 15 15 15 14 13 12 12 11 11 11 11 10 10 10 9 9 9 8
13 13 13 13 13 13 12 12 12 12 12 12 12 12 12 12 12 12 12 12 12 13 14 15 15 15 15 15 15 14 14 13 12 12 11 11 11 10 10 10 10 9 9 8
13 13 13 13 13 13 12 12 12 12 12 12 12 12 12 12 12 12 12 12 13 13 13 14 14 15 15 15 15 14 14 13 13 12 12 11 11 11 10 10 10 9 9 9
13 13 13 13 13 13 12 12 12 12 12 12 12 12 12 12 12 12 12 12 12 13 13 13 14 14 15 15 15 14 14 14 13 13 12 12 11 11 11 10 10 10 9 9
12 13 13 13 13 13 12 12 12 12 12 12 12 12 12 12 12 12 12 12 12 13 13 13 13 14 14 14 14 14 14 14 13 13 13 12 12 11 11 10 10 10 10 10
12 12 13 13 13 13 12 12 12 12 12 12 12 12 12 12 12 12 12 12 12 13 13 13 13 13 14 14 14 14 14 14 13 13 13 13 12 12 11 11 10 10 10 10
11 12 12 13 13 13 13 12 12 12 12 12 12 12 12 12 12 12 12 12 12 12 13 13 13 13 13 13 14 14 14 14 14 13 13 13 12 12 12 11 11 11 10 10
11 11 12 12 12 12 12 12 12 12 12 12 12 12 12 12 12 12 12 12 12 12 12 12 13 13 13 13 13 13 13 13 13 13 13 13 13 12 12 12 11 11 11 10

GEFSNGP_850_meantemp_036.txt.gz
Temperature
18 18 17 17 16 16 15 14 13 13 13 13 13 13 13 13 13 13 13 13 13 13 13 13 13 13 12 12 13 13 13 13 13 13 14 14 14 14 15 15 15 15 15 15
18 18 18 17 17 16 16 15 14 14 14 14 14 14 14 14 14 14 14 14 14 14 14 14 13 13 13 12 12 12 12 12 13 13 13 13 14 14 14 14 15 15 15 15
20 19 19 18 17 17 16 16 16 15 15 15 15 15 15 15 15 15 15 15 15 15 14 14 14 13 13 13 12 12 12 12 12 12 12 12 13 13 13 13 14 14 14 14
21 20 18 17 18 17 17 17 16 16 16 16 16 16 16 15 15 15 15 15 15 15 15 15 14 14 13 13 12 12 12 12 12 12 12 12 12 12 12 12 13 13 13 13
21 20 18 17 17 17 17 17 17 17 17 17 17 16 16 16 15 15 15 15 15 15 15 15 15 14 14 13 12 12 12 12 12 12 12 12 12 12 12 12 12 12 12 12
20 20 19 18 19 18 17 17 18 18 17 17 17 16 16 16 15 15 15 15 15 15 15 15 15 14 14 13 12 12 12 11 12 12 12 12 11 11 11 11 11 11 11 11
20 21 19 18 18 17 17 17 17 17 17 17 16 16 16 16 15 15 15 15 15 15 15 15 15 14 14 13 12 12 12 12 12 12 11 12 11 11 11 11 11 11 11 11
21 20 18 18 17 18 18 18 17 17 16 16 16 16 16 16 15 15 15 15 15 15 15 15 15 14 14 13 13 12 12 12 12 12 11 11 11 11 11 11 11 11 10 10
21 18 18 17 18 18 18 18 17 16 16 16 16 16 16 16 15 15 15 15 15 15 15 15 15 14 14 13 13 13 13 12 12 12 11 11 11 11 11 11 11 10 10 10
20 18 17 17 17 16 17 17 16 16 16 16 16 16 15 16 15 15 15 15 15 15 15 15 15 15 14 14 14 14 13 13 12 12 11 11 11 11 11 11 11 10 10 10
20 19 18 17 17 16 16 16 16 15 15 15 15 15 15 15 15 15 15 15 15 15 15 15 15 15 15 14 14 14 14 13 12 12 11 11 11 11 11 11 10 10 10 10
20 20 19 17 17 16 16 16 16 16 15 15 15 15 15 15 15 15 15 15 15 15 15 16 15 15 15 14 14 14 13 13 12 12 11 11 11 11 11 11 10 10 10 10
20 20 19 18 17 16 16 16 16 15 15 15 15 15 15 15 15 15 15 15 15 15 15 15 15 15 15 14 14 14 13 13 12 12 11 11 11 11 11 10 10 10 10 10
19 19 18 17 17 16 16 16 16 15 15 15 15 14 14 15 15 15 15 15 15 15 15 15 15 15 15 14 14 13 13 13 12 12 11 11 11 11 11 10 10 10 10 9
18 18 18 17 16 16 16 16 15 15 15 15 14 14 14 14 14 14 15 15 15 15 15 15 15 15 15 14 14 13 13 12 12 12 12 11 11 11 11 11 10 10 9 9
17 17 17 17 16 16 16 16 15 16 15 15 15 14 14 14 14 14 14 15 15 15 15 15 15 15 15 14 14 14 13 13 12 12 12 12 12 11 11 11 10 10 10 9
17 17 17 16 16 16 16 16 16 16 15 15 15 14 14 14 14 14 14 14 14 14 14 15 15 15 15 14 14 14 13 13 12 12 12 12 12 11 11 11 10 10 10 9
17 17 17 16 16 16 16 16 16 16 15 15 14 14 14 14 14 14 14 14 14 14 14 15 15 15 15 14 14 14 14 13 13 12 12 12 12 11 11 11 10 10 9 9
18 17 17 17 16 16 16 15 15 15 15 14 14 14 14 14 13 13 13 13 14 14 14 15 15 15 14 14 15 14 14 13 13 13 12 12 12 11 11 11 10 10 9 9
17 17 17 16 16 16 16 15 15 15 14 14 14 13 13 13 13 13 13 13 13 13 14 14 15 14 14 14 15 14 14 13 13 13 13 12 12 12 12 11 11 10 10 9
17 17 16 16 16 16 15 15 15 14 14 14 13 13 13 13 13 13 13 13 13 13 14 14 14 14 15 15 15 15 14 14 13 13 13 13 12 12 12 11 11 10 10 10
16 16 16 16 16 15 15 15 15 14 14 13 13 13 13 13 13 13 13 13 13 13 13 13 13 14 14 15 15 15 14 14 13 13 13 13 12 12 12 12 11 11 10 10
16 16 16 16 15 15 15 14 14 14 14 13 13 13 13 13 13 13 13 13 12 13 13 13 14 14 14 15 15 14 14 14 13 13 13 13 12 12 12 12 11 11 11 10
16 16 16 16 15 15 15 14 14 14 14 13 13 13 13 13 13 13 13 13 13 13 13 13 14 14 14 14 14 14 14 14 13 13 13 13 13 12 12 12 12 11 11 10
14 15 15 15 15 15 15 15 14 14 13 13 13 13 13 13 13 13 12 12 12 13 13 13 13 14 14 13 13 13 13 13 13 13 13 13 13 13 12 12 12 11 11 11
13 14 14 15 15 15 15 15 14 14 14 13 13 13 13 13 13 13 13 13 13 13 13 13 13 13 13 13 13 13 13 13 13 13 13 13 13 13 13 12 12 12 11 11
12 13 13 13 13 14 14 14 14 14 14 13 13 13 13 13 13 13 13 13 13 13 13 13 13 13 12 13 13 13 13 13 13 13 13 13 13 13 13 13 12 12 12 11

GEFSNGP_850_meantemp_042.txt.gz
Temperature
14 15 15 14 14 13 12 11 11 12 12 12 12 12 13 13 14 14 13 13 13 13 13 12 12 12 12 12 12 12 12 13 13 13 13 13 13 13 13 13 14 14 14 14
15 15 15 14 14 14 13 13 12 12 12 13 14 14 14 14 14 14 14 14 14 14 13 13 12 12 12 12 12 12 12 12 12 12 12 12 12 12 13 13 13 13 13 13
13 15 15 14 14 14 14 14 13 13 13 14 13 14 14 14 14 14 14 14 14 14 14 13 13 12 12 12 12 12 12 12 12 12 12 12 12 12 12 12 12 12 13 13
13 14 14 14 15 15 15 14 14 14 14 14 14 15 15 15 14 14 14 14 14 14 14 13 13 13 12 12 12 12 12 12 12 12 12 12 12 12 11 11 12 12 12 12
12 14 14 14 15 15 14 14 15 14 15 15 15 14 14 15 15 15 14 14 14 14 14 14 13 13 13 12 12 12 12 12 12 12 12 11 11 11 11 11 11 11 11 11
13 15 15 15 15 16 15 14 15 15 15 15 14 11 13 15 15 15 15 15 15 14 14 14 13 13 13 12 12 12 12 11 11 11 11 11 11 11 11 11 11 11 11 11
14 15 14 15 16 16 13 14 16 16 15 15 15 13 15 15 15 15 15 15 15 15 14 14 14 13 13 13 12 12 12 12 11 11 11 11 11 11 11 11 11 10 11 11
13 14 15 15 15 14 14 16 16 16 16 16 15 15 15 15 15 15 15 15 15 15 15 14 14 14 13 13 13 12 12 12 11 11 11 11 11 11 11 11 11 10 10 10
13 14 15 17 17 17 17 16 16 16 16 15 15 15 15 15 15 15 15 15 15 15 15 15 14 14 13 13 13 13 12 12 11 11 11 11 11 11 11 11 11 10 10 10
13 14 15 17 17 17 17 17 16 16 16 15 15 15 15 15 15 15 15 15 15 15 15 15 14 14 14 13 13 13 12 12 11 11 11 11 11 11 11 11 10 10 10 10
14 14 15 16 17 17 17 16 16 16 16 15 15 15 15 15 15 15 15 15 15 15 15 15 14 14 14 14 13 13 12 12 11 11 11 11 11 11 10 10 10 10 9 9
13 15 15 16 17 17 16 16 16 16 15 15 15 15 15 15 15 15 15 15 15 15 15 15 15 14 14 14 13 13 12 12 11 11 11 11 11 10 10 10 10 9 9 9
20 19 18 18 17 17 17 16 16 16 16 15 15 15 15 15 15 15 15 15 15 15 15 15 15 14 14 13 13 13 12 12 11 11 11 11 11 10 10 10 9 9 9 9
20 19 18 18 17 16 16 16 16 16 15 15 15 15 15 15 15 15 15 15 15 15 15 15 15 14 14 14 13 13 12 12 12 11 11 11 11 11 10 10 10 9 9 9
19 19 19 18 17 16 16 16 16 15 15 15 15 15 15 15 15 15 15 15 15 15 15 15 15 15 14 14 13 13 13 12 12 11 11 11 11 11 11 10 10 9 9 9
18 18 18 18 17 16 16 16 15 15 15 15 15 15 15 15 15 15 15 15 15 15 15 15 15 15 14 14 13 13 13 12 12 12 12 11 11 11 11 10 10 10 9 9
18 17 17 17 16 16 16 16 16 16 15 15 15 15 15 15 15 15 15 15 15 15 15 15 15 15 14 14 14 13 13 13 12 12 12 11 11 11 11 10 10 10 9 9
19 19 18 17 17 16 16 16 16 15 15 15 15 15 15 15 15 15 15 14 14 14 14 14 14 14 14 14 14 14 13 13 13 12 12 12 11 11 11 11 10 10 10 9
19 18 18 17 17 16 16 16 16 15 15 15 15 15 15 15 15 14 14 14 14 14 14 14 14 14 14 14 14 14 13 13 13 13 12 12 12 11 11 11 11 10 10 10
18 18 18 17 17 16 16 16 15 15 15 15 15 15 15 15 14 14 14 14 14 14 14 14 14 14 14 14 14 14 14 13 13 13 13 12 12 12 12 11 11 11 10 10
18 18 18 17 17 16 16 16 16 15 15 15 15 15 15 14 14 14 14 14 14 14 13 13 14 14 14 14 14 14 14 14 13 13 13 13 12 12 12 12 11 11 11 11
17 17 17 17 17 16 16 16 16 16 15 15 15 15 14 14 14 14 14 14 14 14 13 13 13 14 14 14 14 14 14 14 14 13 13 13 13 12 12 12 12 12 11 11
16 17 17 17 17 16 16 16 16 16 15 15 15 15 14 14 14 14 14 14 14 14 13 13 13 13 14 14 14 14 14 14 14 14 13 13 13 13 13 12 12 12 12 11
15 16 16 16 16 16 16 16 16 16 15 15 15 15 14 14 14 14 14 13 13 13 13 13 13 13 14 14 14 14 14 14 14 14 13 13 13 13 13 13 12 12 12 12
14 14 15 15 15 16 16 16 16 15 15 15 15 14 14 14 14 14 13 13 13 13 13 13 13 13 13 13 13 13 13 13 13 13 13 13 13 13 13 13 13 12 12 12
13 13 14 14 14 15 15 15 15 15 15 15 15 14 14 14 14 14 13 13 13 13 13 13 13 13 13 13 13 13 13 13 13 13 13 13 13 13 13 13 13 13 12 12
12 12 13 13 13 13 14 14 14 14 15 15 15 14 14 14 14 14 13 13 13 13 13 13 13 13 13 13 13 13 13 13 13 13 13 13 13 13 13 13 13 12 12 12

GEFSNGP_850_meantemp_048.txt.gz
Temperature
13 13 13 13 13 12 11 10 10 11 11 11 11 12 13 13 13 13 13 13 13 12 12 12 12 11 11 11 11 11 12 12 12 12 12 12 12 12 13 13 13 13 13 13
14 14 14 13 13 13 12 11 11 11 11 12 13 13 13 13 13 13 13 13 13 13 12 12 12 11 11 11 11 11 11 11 11 11 12 12 12 12 12 12 12 12 13 13
12 13 13 13 13 12 12 12 12 11 12 13 13 13 14 14 14 13 13 13 13 13 13 12 12 11 11 11 11 11 11 11 11 11 11 11 11 11 11 11 12 12 12 12
11 13 14 14 14 13 13 13 12 12 12 13 14 14 14 14 14 14 14 13 13 13 13 12 12 12 11 11 11 11 11 11 11 11 11 11 11 11 11 11 11 11 11 11
10 12 13 14 13 13 13 13 13 12 13 14 14 14 14 14 14 14 14 14 14 13 13 13 12 12 12 11 11 11 11 11 11 10 10 10 10 10 10 10 11 11 11 11
11 14 15 15 14 15 14 13 14 14 14 14 13 11 12 14 14 14 14 14 14 14 13 13 13 12 12 12 11 11 11 11 10 10 10 10 10 10 10 10 10 10 10 10
11 13 13 14 14 15 13 13 15 15 15 14 14 13 15 14 14 14 14 14 14 14 14 13 13 13 12 12 12 11 11 11 11 10 10 10 10 10 10 10 10 10 10 10
10 12 13 14 13 13 13 16 16 16 16 15 15 15 15 15 14 14 14 14 14 14 14 14 13 13 12 12 12 11 11 11 11 10 10 10 10 10 10 10 10 10 9 9
11 13 15 15 16 17 17 17 16 16 16 15 15 15 15 15 15 15 15 15 15 14 14 14 13 13 13 12 12 11 11 11 11 10 10 10 10 10 10 10 9 9 9 9
10 11 14 15 16 17 17 17 17 17 16 16 15 15 15 15 15 15 15 15 15 15 14 14 14 13 13 12 12 12 11 11 11 10 10 10 10 10 10 10 9 9 9 9
12 12 14 15 16 17 17 17 17 16 16 16 16 15 15 15 15 15 15 15 15 15 15 14 14 13 13 13 12 12 11 11 11 10 10 10 10 10 9 9 9 9 9 9
13 16 15 18 18 17 17 17 17 16 16 16 16 16 15 15 15 15 15 15 15 15 15 14 14 14 13 13 12 12 11 11 11 10 10 10 10 10 9 9 9 9 8 8
20 20 19 19 18 17 17 17 17 17 16 16 16 16 15 15 15 15 15 15 15 15 15 14 14 14 13 13 13 12 12 11 11 11 10 10 10 10 10 9 9 9 8 8
19 19 19 18 18 18 17 17 17 17 16 16 16 16 15 15 15 15 15 15 15 15 15 14 14 14 14 13 13 12 12 11 11 11 11 10 10 10 10 10 9 9 9 9
20 19 19 19 18 18 17 17 16 16 16 16 16 15 15 15 15 15 15 15 15 15 15 14 14 14 14 13 13 13 12 12 11 11 11 11 11 10 10 10 9 9 9 9
20 19 19 18 18 18 17 16 16 16 16 16 16 16 15 15 15 15 15 15 15 15 15 14 14 14 14 14 13 13 13 12 12 12 11 11 11 10 10 10 10 9 9 9
20 19 18 18 18 18 17 17 16 16 16 16 16 16 15 15 15 15 15 15 15 15 15 14 14 14 14 14 13 13 13 13 12 12 12 11 11 11 11 10 10 10 9 9
21 21 20 19 19 18 18 17 16 16 16 16 16 15 15 15 15 15 15 15 15 15 15 14 14 14 14 14 13 13 13 13 13 12 12 12 11 11 11 11 10 10 10 10
20 20 19 19 18 18 18 17 17 16 16 16 15 15 15 15 15 15 15 15 15 15 14 14 14 14 13 13 13 13 13 13 13 13 12 12 12 12 11 11 11 10 10 10
20 19 19 18 18 18 17 17 17 16 16 15 15 15 15 15 15 15 14 14 15 14 14 14 13 13 13 13 13 13 13 13 13 13 13 13 12 12 12 12 11 11 11 11
19 19 19 18 18 18 17 17 16 16 16 15 15 15 15 15 15 15 14 14 15 14 14 13 13 13 13 13 13 13 13 13 13 13 13 13 13 12 12 12 12 11 11 11
19 19 18 18 18 17 17 17 16 16 16 15 15 15 15 15 15 15 14 14 14 14 13 13 13 13 13 13 13 13 13 13 13 13 13 13 13 13 13 12 12 12 12 11
17 18 18 17 17 17 17 17 16 16 16 16 15 15 15 15 15 15 14 14 14 14 13 13 13 13 13 13 13 13 13 13 13 13 13 13 13 13 13 13 12 12 12 12
16 16 16 17 17 16 16 16 16 16 16 16 16 15 15 15 15 15 14 14 14 13 13 13 13 13 13 13 13 13 13 13 13 13 13 13 13 13 13 13 13 13 12 12
14 14 15 15 15 16 16 16 16 16 16 16 15 15 15 15 15 15 14 14 14 13 13 13 13 13 13 13 13 13 13 13 13 13 13 13 13 13 13 13 13 13 13 12
12 12 12 13 13 14 14 15 15 15 15 15 15 15 15 15 15 14 14 14 14 13 13 13 13 13 13 13 13 13 13 13 13 13 13 13 13 13 13 13 13 13 13 12
10 10 11 11 11 12 12 13 13 14 14 14 14 15 15 14 14 14 14 14 14 13 13 13 13 13 13 13 12 12 12 12 12 12 12 12 12 12 13 13 13 12 12 12

GEFSNGP_850_meantemp_054.txt.gz
Temperature
19 18 18 18 17 16 17 18 18 17 16 17 17 16 15 15 14 14 14 14 13 13 12 12 12 12 11 11 11 11 11 11 11 11 11 11 11 11 12 12 12 12 12 12
19 18 18 18 17 17 17 17 17 17 17 17 16 16 15 15 15 15 14 14 13 13 13 12 12 12 11 11 11 11 11 11 11 11 11 11 11 11 11 12 12 12 12 12
21 18 18 20 20 18 18 18 18 17 18 17 17 16 16 15 15 15 14 14 14 13 13 13 12 12 11 11 11 11 10 10 10 10 11 10 11 11 11 11 11 11 11 11
20 20 20 21 19 19 19 18 18 18 18 17 17 16 15 15 15 15 14 14 14 13 13 13 12 12 11 11 11 11 10 10 10 10 10 10 11 11 10 10 11 11 11 11
21 21 21 20 18 18 18 19 19 18 18 17 16 16 16 15 15 14 14 14 14 13 13 13 12 12 12 12 11 11 10 10 10 10 10 10 10 10 10 10 10 10 10 10
20 20 22 21 20 18 19 20 20 18 18 17 16 18 18 16 15 14 14 14 14 13 13 13 13 12 12 12 11 11 10 10 10 10 10 10 10 10 10 10 10 9 10 10
20 21 22 21 18 18 19 22 20 18 18 17 17 19 17 15 15 14 14 14 14 13 13 13 13 12 12 12 11 11 11 10 10 10 10 10 10 10 9 9 9 9 9 9
20 20 21 18 17 19 21 20 19 18 18 17 17 16 15 15 15 14 14 14 14 14 13 13 13 13 12 12 11 11 11 11 10 10 10 10 10 10 9 9 9 9 9 9
21 22 20 18 19 19 19 19 19 18 17 17 16 16 15 15 15 14 14 14 14 14 13 13 13 13 12 12 11 11 11 11 10 10 10 10 10 9 9 9 9 9 9 9
21 22 20 17 18 17 17 18 18 18 17 17 16 16 15 15 15 15 14 14 14 14 14 13 13 13 12 12 12 11 11 10 10 10 10 10 10 9 9 9 9 9 9 9
21 22 19 17 17 17 17 17 17 17 17 16 16 16 16 15 15 15 15 15 15 14 14 14 13 13 13 12 12 11 11 11 10 10 10 10 10 10 9 9 9 9 9 8
23 23 22 21 19 18 17 17 17 17 16 16 16 16 16 16 15 15 15 15 15 14 14 14 13 13 13 13 12 12 11 11 11 10 10 10 10 9 9 9 9 9 9 9
22 20 20 20 20 19 18 17 17 17 17 16 16 16 16 16 15 15 15 15 15 15 14 14 14 13 13 13 12 12 12 11 11 11 10 10 10 10 9 9 9 9 9 9
19 19 19 19 19 19 18 18 17 17 17 16 16 16 16 16 15 15 15 15 15 15 15 14 14 14 14 13 13 12 12 12 11 11 11 10 10 10 10 9 9 9 9 10
20 19 19 19 19 19 18 17 17 17 17 16 16 16 16 16 16 16 16 16 15 15 15 15 14 14 14 14 13 13 12 12 12 11 11 11 10 10 10 10 10 9 9 9
20 20 18 18 18 18 18 17 17 17 17 16 16 16 16 16 16 16 16 16 15 15 15 15 15 14 14 14 14 13 13 13 12 12 11 11 11 11 10 10 10 10 9 9
19 18 18 18 18 18 18 17 17 17 17 16 16 16 16 16 16 16 16 16 16 15 15 15 15 15 15 14 14 13 13 13 13 12 12 11 11 11 11 11 10 10 10 10
20 21 20 21 20 19 18 18 17 17 17 17 16 16 16 16 16 16 16 16 15 15 15 15 15 15 15 14 14 13 13 13 13 12 12 12 12 11 11 11 11 10 10 10
18 19 20 20 20 19 19 18 18 17 17 16 16 16 16 16 16 16 15 15 15 15 15 15 15 15 14 14 14 14 13 13 13 13 12 12 12 12 12 11 11 11 11 11
17 18 18 19 20 19 19 18 18 17 17 16 16 16 15 15 15 15 15 15 15 15 15 15 15 15 14 14 14 14 13 13 13 13 13 13 12 12 12 12 12 12 11 11
15 16 17 18 19 19 19 18 18 17 17 16 16 16 15 15 15 15 15 15 15 15 15 15 15 15 14 14 14 13 13 13 13 13 13 13 13 12 12 12 12 12 12 12
13 14 15 16 17 18 18 18 18 18 17 17 16 16 15 15 15 15 15 15 15 15 15 15 15 14 14 14 14 14 13 13 13 13 13 13 13 13 13 12 12 12 12 12
11 12 13 14 15 16 17 18 18 17 17 17 16 16 15 15 15 15 15 15 15 15 15 15 15 14 14 14 13 13 13 13 13 13 13 13 13 13 13 13 13 13 13 13
9 10 11 13 13 14 15 16 17 17 17 16 16 16 15 15 15 15 15 15 15 15 15 15 14 14 14 14 13 13 13 13 13 13 13 13 13 13 13 13 13 13 13 13
7 8 9 10 11 12 13 14 15 16 16 16 16 15 15 15 15 15 15 15 15 15 14 14 14 14 14 13 13 13 13 13 13 13 13 13 13 13 13 13 13 13 13 13
6 7 7 7 8 10 11 12 13 14 15 15 15 15 15 15 15 15 15 15 15 14 14 14 14 14 14 13 13 13 13 13 13 13 13 13 13 13 13 13 13 13 13 13
6 6 6 7 7 8 9 9 10 11 13 13 14 15 15 15 15 15 15 15 14 14 14 14 14 14 13 13 13 13 13 13 13 13 13 13 13 13 13 13 13 13 13 13

GEFSNGP_850_meantemp_060.txt.gz
Temperature
23 23 23 22 22 21 21 21 21 20 20 20 19 19 18 17 17 17 16 16 15 15 14 14 14 13 13 12 12 12 12 11 11 11 11 11 11 11 11 11 11 11 12 12
24 23 23 22 22 22 21 21 21 20 20 21 20 19 18 18 17 17 16 16 16 15 15 14 14 13 13 12 12 12 12 11 11 11 11 11 11 11 11 11 11 11 11 12
24 24 23 23 24 23 22 22 21 21 21 20 20 19 18 18 17 17 17 16 16 15 15 15 14 14 13 13 12 12 11 11 11 11 11 10 10 10 10 10 10 11 11 11
24 24 23 23 24 24 23 23 23 22 21 20 20 19 18 18 17 17 17 16 16 15 15 15 15 14 14 13 12 12 11 11 11 11 10 10 10 10 10 10 10 10 10 10
24 24 25 23 23 23 22 22 23 22 22 21 20 19 19 18 17 17 16 16 16 15 15 15 14 14 14 13 12 12 11 11 11 11 10 10 10 10 10 10 10 10 10 10
23 23 24 24 24 23 23 22 24 23 22 21 20 19 19 18 17 17 16 16 15 15 15 15 14 14 14 13 13 12 11 11 11 11 10 10 10 10 10 10 10 10 10 10
22 23 25 23 23 22 21 23 24 23 22 21 20 20 19 18 17 17 16 15 15 15 15 15 14 14 14 13 12 12 11 11 11 11 10 10 10 10 10 10 10 10 10 10
24 23 23 22 22 22 23 23 23 23 22 21 20 19 18 18 17 17 16 16 15 15 15 14 14 14 14 13 12 12 11 11 11 11 11 10 10 10 10 10 10 10 10 9
25 24 23 22 23 23 24 23 23 22 22 21 20 19 18 18 17 17 16 16 16 15 15 15 14 14 14 13 12 12 11 11 11 11 11 10 10 10 10 10 9 9 9 9
24 25 25 23 23 23 23 22 23 22 21 21 20 19 18 18 17 17 17 16 16 15 15 15 15 14 14 13 13 12 12 12 12 11 11 11 10 10 10 10 10 10 10 10
24 25 26 25 24 23 22 22 22 22 21 20 20 19 18 18 18 17 17 17 16 16 16 15 15 14 14 13 13 13 13 13 12 12 11 11 11 10 10 10 10 10 10 10
24 26 26 25 24 23 22 22 21 21 21 20 20 19 19 18 18 17 17 17 16 16 16 16 15 15 14 14 13 13 14 13 13 12 12 11 11 11 11 10 10 11 11 11
26 25 25 24 24 23 22 22 21 21 20 20 19 19 19 18 18 18 17 17 17 16 16 16 15 15 15 14 14 13 13 13 13 12 12 12 11 11 11 11 11 11 11 11
25 24 24 24 23 23 22 21 21 20 20 20 19 19 19 18 18 18 17 17 17 17 16 16 16 15 15 14 14 14 13 13 13 13 12 12 12 12 11 11 11 11 11 11
23 23 23 23 23 22 22 21 21 20 20 20 19 19 18 18 18 18 17 17 17 17 16 16 16 15 15 15 14 14 14 13 13 13 12 12 12 12 12 12 12 11 11 11
20 21 22 21 21 22 21 21 21 20 20 20 19 19 18 18 18 18 17 17 17 17 17 16 16 16 15 15 15 14 14 14 13 13 13 12 12 12 12 12 12 12 11 11
16 17 18 19 20 20 21 21 21 20 20 20 19 19 18 18 18 18 17 17 17 17 17 16 16 16 16 16 15 15 14 14 14 13 13 13 13 13 13 13 12 12 12 12
14 15 15 16 18 18 20 20 21 20 20 20 20 19 19 18 18 17 17 17 17 16 16 16 16 16 16 16 15 15 14 14 14 14 13 13 13 13 13 13 13 13 12 12
12 13 14 15 16 17 18 19 20 20 20 20 20 19 19 18 18 18 17 17 17 16 17 16 16 16 16 16 16 15 15 14 14 14 13 13 13 13 13 13 13 13 13 12
11 12 12 13 14 15 16 17 18 19 20 20 20 20 19 19 18 18 17 17 17 17 17 16 16 16 16 16 15 15 15 14 14 13 13 13 13 13 13 13 13 13 13 13
10 11 11 12 13 14 15 16 17 18 19 19 19 19 19 19 18 18 17 17 17 17 17 16 16 16 16 16 15 15 15 14 14 14 13 13 13 13 13 13 13 13 13 13
10 10 10 10 11 12 13 15 16 17 18 18 19 19 19 19 18 18 17 17 17 17 17 16 16 16 16 15 15 15 15 14 14 14 13 13 13 13 13 13 13 13 13 13
9 9 9 9 10 10 12 13 14 15 16 17 17 18 18 18 18 18 17 17 17 17 16 16 16 16 15 15 15 15 15 14 14 14 14 13 13 13 13 13 13 13 13 13
8 8 8 8 8 9 10 10 11 13 14 15 16 16 16 17 17 17 17 17 17 16 16 16 15 15 15 15 15 14 14 14 14 14 13 13 13 13 13 13 13 13 13 13
7 7 7 7 7 7 7 8 9 10 11 12 13 14 15 15 15 16 16 16 16 16 16 15 15 15 15 14 14 14 14 14 14 14 13 13 13 13 13 13 13 13 13 13
6 6 6 6 6 6 6 6 7 7 8 9 10 11 12 13 14 14 15 15 15 15 15 15 15 15 14 14 14 14 14 14 14 13 13 13 13 13 13 13 13 13 13 12
5 5 5 5 5 5 5 5 5 6 6 7 8 8 9 10 11 12 13 13 14 14 14 14 14 14 14 14 14 14 14 14 13 13 13 13 13 13 13 13 13 13 13 12